Location: Jackson
(42.2460°N, 84.4010°W)
Time: 11:28:44
(UTC-04:00)

Injun/Solrad 3 - Pass Details

Date: 16 February 2026
Orbit: 871 x 985 km, 66.8° (Epoch: 16 March)

Event Time Altitude Azimuth Distance (km) Brightness Sun altitude
Rises 19:50:08 0° 335° (NNW) 3,563 11.3 -18.8°
Reaches altitude 10° 19:52:56 10° 345° (NNW) 2,637 10.5 -19.4°
Maximum altitude 19:58:23 32° 48° (NE) 1,569 8.7 -20.4°
Enters shadow 19:59:02 31° 60° (ENE) 1,593 8.7 -20.5°
